sat.trackr.live / text

‹ back to catalog

STARLINK-5553

NORAD 56333 · 2023-058S

PAYLOAD ACTIVE UNKNOWN

§ Identity

Operator
Country
US
Launch date
2023-04-27
Launch site
AFWTR
Launch vehicle
Mass (kg)
RCS (m²)

Purposes: comms

External: N2YO · Heavens-Above · Gunter

§ Orbital elements

Epoch: 2026-09-20T13:02:34.764288Z

Period
93.91 min
Inclination
97.2838°
Eccentricity
0.0001695
Mean motion
15.33444084 rev/d
Perigee alt
464.4 km
Apogee alt
466.7 km
Semi-major
6,843.7 km
B*
-7.1541e-6
RAAN
260.3235°
Arg perigee
89.0590°
Mean anomaly
271.0847°
Rev number
18,764

§ Raw data

STARLINK-55531 56333U 23058S   26263.54345792 -.00000306  00000+0 -71541-5 0  99992 56333  97.2838 260.3235 0001695  89.0590 271.0847 15.33444084187643

JSON: /api/v1/satellites/56333 · /tle

For live sub-satellite position, see the globe view (requires WebGL).

§ Visibility from observer

Set your observer location to see the next 7 days of passes ≥ 10°. The values pass through the URL so the page stays shareable.

No JS? Fill the form by hand. The geolocation button needs JavaScript.